Location: Unspecified
(35.7250°N, 0.0000°E)
Time: 09:12:21
(UTC+00:00)

deb Explorer IX - All Passes

Search period start: 24 June 2019 00:00
Search period end: 04 July 2019 00:00
Orbit: 536 x 1115 km, 38.8° (Epoch: 23 June)

Date Brightness Start Highest point End Pass type
(mag) Time Alt. Az. Time Alt. Az. Time Alt. Az.
24 Jun - 10:49:54 10° SSW 10:54:59 25° SE 11:00:31 10° E daylight
24 Jun - 12:34:59 10° WSW 12:41:46 71° SSE 12:49:07 10° ENE daylight
24 Jun - 14:22:18 10° W 14:29:31 72° N 14:36:55 10° ENE daylight
24 Jun - 16:10:08 10° WNW 16:17:35 77° NNE 16:24:45 10° E daylight
24 Jun - 17:57:58 10° WNW 18:05:08 57° SSW 18:11:42 10° SE daylight
24 Jun - 19:47:21 10° W 19:51:38 17° SW 19:55:40 10° S visible
25 Jun - 10:28:05 10° SSW 10:33:03 25° SE 10:38:31 10° E daylight
25 Jun - 12:13:10 10° WSW 12:19:48 71° SSE 12:27:07 10° ENE daylight
25 Jun - 14:00:26 10° W 14:07:32 72° N 14:14:57 10° ENE daylight
25 Jun - 15:48:12 10° WNW 15:55:36 78° NNE 16:02:52 10° E daylight
25 Jun - 17:35:58 10° WNW 17:43:10 56° SSW 17:49:51 10° SE daylight
25 Jun - 19:25:21 10° W 19:29:42 17° SW 19:33:49 10° S daylight
26 Jun - 10:06:17 10° SSW 10:11:08 25° SE 10:16:29 10° E daylight
26 Jun - 11:51:21 10° WSW 11:57:51 72° SSE 12:05:07 10° ENE daylight
26 Jun - 13:38:34 10° W 13:45:34 71° N 13:52:59 10° ENE daylight
26 Jun - 15:26:16 10° WNW 15:33:37 79° NNE 15:40:57 10° E daylight
26 Jun - 17:13:59 10° WNW 17:21:11 56° SSW 17:27:59 10° SE daylight
26 Jun - 19:03:22 10° W 19:07:45 17° SW 19:11:57 10° S daylight
27 Jun - 09:44:30 10° SSW 09:49:13 24° SE 09:54:27 10° E daylight
27 Jun - 11:29:33 10° WSW 11:35:53 73° SSE 11:43:04 10° ENE daylight
27 Jun - 13:16:44 10° W 13:23:36 71° N 13:31:00 10° ENE daylight
27 Jun - 15:04:20 10° WNW 15:11:37 79° NNE 15:19:00 10° E daylight
27 Jun - 16:52:00 10° WNW 16:59:12 55° SSW 17:06:05 10° SE daylight
27 Jun - 18:41:22 10° W 18:45:48 17° SW 18:50:02 10° S daylight
28 Jun - 09:22:44 10° SSW 09:27:18 24° SE 09:32:25 10° E daylight
28 Jun - 11:07:46 10° WSW 11:13:57 73° SSE 11:21:02 10° ENE daylight
28 Jun - 12:54:54 10° W 13:01:38 70° N 13:08:59 10° E daylight
28 Jun - 14:42:26 10° WNW 14:49:38 80° NNE 14:57:04 10° E daylight
28 Jun - 16:30:03 10° WNW 16:37:12 54° SSW 16:44:10 10° SE daylight
28 Jun - 18:19:24 10° W 18:23:50 17° SW 18:28:06 10° S daylight
29 Jun - 09:00:59 10° SSW 09:05:25 24° SE 09:10:23 10° E daylight
29 Jun - 10:46:01 10° WSW 10:52:01 74° SSE 10:58:59 10° ENE daylight
29 Jun - 12:33:05 10° W 12:39:40 70° N 12:46:59 10° E daylight
29 Jun - 14:20:33 10° WNW 14:27:38 80° NNE 14:35:05 10° E daylight
29 Jun - 16:08:06 10° WNW 16:15:11 53° SSW 16:22:13 10° SE daylight
29 Jun - 17:57:27 10° W 18:01:51 17° SW 18:06:07 10° S daylight
30 Jun - 08:39:14 10° SSW 08:43:31 24° SE 08:48:21 10° E daylight
30 Jun - 10:24:16 10° WSW 10:30:06 75° SSE 10:36:56 10° ENE daylight
30 Jun - 12:11:18 10° W 12:17:42 69° N 12:24:57 10° E daylight
30 Jun - 13:58:40 10° WNW 14:05:38 81° NNE 14:13:05 10° E daylight
30 Jun - 15:46:10 10° WNW 15:53:11 52° SSW 16:00:15 10° SE daylight
30 Jun - 17:35:32 10° W 17:39:52 17° SW 17:44:07 10° S daylight
01 Jul - 08:17:30 10° SSW 08:21:38 23° SE 08:26:19 10° E daylight
01 Jul - 10:02:31 10° WSW 10:08:11 76° SSE 10:14:52 10° ENE daylight
01 Jul - 11:49:30 10° W 11:55:45 69° N 12:02:54 10° E daylight
01 Jul - 13:36:49 10° WNW 13:43:39 81° NNE 13:51:05 10° ESE daylight
01 Jul - 15:24:14 10° WNW 15:31:10 52° SSW 15:38:15 10° SE daylight
01 Jul - 17:13:37 10° WSW 17:17:52 16° SW 17:22:04 10° S daylight
02 Jul - 07:55:46 10° SSW 07:59:46 23° SE 08:04:18 10° E daylight
02 Jul - 09:40:48 10° WSW 09:46:16 76° SSE 09:52:49 10° ENE daylight
02 Jul - 11:27:44 10° W 11:33:49 68° N 11:40:50 10° E daylight
02 Jul - 13:14:58 10° WNW 13:21:40 81° NNE 13:29:02 10° ESE daylight
02 Jul - 15:02:20 10° WNW 15:09:08 50° SSW 15:16:14 10° SE daylight
02 Jul - 16:51:44 10° WSW 16:55:52 16° SW 17:00:00 10° S daylight
03 Jul - 07:34:03 10° SSW 07:37:54 23° SE 07:42:16 10° E daylight
03 Jul - 09:19:04 10° WSW 09:24:24 77° SSE 09:30:46 10° ENE daylight
03 Jul - 11:05:59 10° W 11:11:53 67° N 11:18:46 10° E daylight
03 Jul - 12:53:09 10° WNW 12:59:41 82° NNE 13:07:00 10° ESE daylight
03 Jul - 14:40:27 10° WNW 14:47:08 49° SSW 14:54:11 10° SE daylight
03 Jul - 16:29:52 10° WSW 16:33:52 16° SW 16:37:53 10° S daylight
